Location: ??
(34.9170°N, 135.5016°E)
Time: 18:25:29
(UTC+00:00)

H-2A R/B - Pass Details

Date: 29 October 2020
Orbit: 577 x 656 km, 98.5° (Epoch: 01 December)

Event Time Altitude Azimuth Distance (km) Brightness Sun altitude
Rises 19:47:38 0° 192° (SSW) 2,953 5.5 -18.8°
Reaches altitude 10° 19:50:07 10° 204° (SSW) 2,039 4.5 -18.3°
Enters shadow 19:51:58 20° 223° (SW) 1,478 3.6 -17.9°
